Hurghada, Egypt

3:24 AM EET on September 23, 2017 (GMT +0200)
Hurghada

Weather History for HEGN - March, 2012

Change the Weather History Date:

Wednesday, March 21, 2012

  Actual Average Record
Temperature  
Mean Temperature 64 °F -  
Max Temperature 75 °F 79 °F 94 °F (2013)
Min Temperature 54 °F 62 °F 55 °F (2003)
Growing Degree Days 14 (Base 50)    
Moisture  
Dew Point 40 °F    
Average Humidity 36    
Maximum Humidity 56    
Minimum Humidity 23    
Precipitation  
Precipitation 0.00 in - - ()
Sea Level Pressure  
Sea Level Pressure 30.03 in    
Wind  
Wind Speed 14 mph ()    
Max Wind Speed 28 mph    
Max Gust Speed -    
Visibility 3.0 miles    
Events      
Averages and records for this station are not official NWS values.
T = Trace of Precipitation, MM = Missing Value Source: Averaged Metar Reports

Daily Weather History Graph

Daily Weather History Graph

Search for Another Location

Airport or City:

Trip Planner

Search our weather history database for the weather conditions in past years. The results will help you decide how hot, cold, wet, or windy it might be!

Date:

Astronomy

Mar. 21, 2012 Rise Set
Actual Time 5:47 AM EET 5:57 PM EET
Civil Twilight 5:24 AM EET 6:20 PM EET
Nautical Twilight 4:57 AM EET 6:47 PM EET
Astronomical Twilight 4:30 AM EET 7:14 PM EET
Moon 4:45 AM EET (3/21) 5:04 PM EET (3/21)
Length of Visible Light 12h 55m
Length of Day
12h 09m
Waning Crescent, 1% of the Moon is Illuminated
Mar 21
Waning Crescent
Mar 22
New
Mar 30
First Quarter
Apr 6
Full
Apr 13
Last Quarter

Hourly Weather History & Observations

Time (EET) Temp. Dew Point Humidity Pressure Visibility Wind Dir Wind Speed Gust Speed Precip Events Conditions
12:00 AM 62.6 °F 30.2 °F 30% 30.06 in 3.7 mi NW 11.5 mph - N/A   Unknown
1:00 AM 60.8 °F 32.0 °F 34% 30.06 in 3.7 mi NW 12.7 mph - N/A   Unknown
2:00 AM 60 °F 32 °F 23% 30.05 in 4 mi NW 13.8 mph - -   Widespread Dust
2:00 AM 60.8 °F 32.0 °F 34% 30.04 in 3.7 mi NW 13.8 mph - N/A   Unknown
3:00 AM 59.0 °F 32.0 °F 36% 30.04 in 3.7 mi NW 12.7 mph - N/A   Unknown
4:00 AM 59.0 °F 30.2 °F 34% 30.04 in 3.7 mi WNW 11.5 mph - N/A   Unknown
5:00 AM 57.2 °F 28.4 °F 33% 30.04 in 3.7 mi WNW 10.4 mph - N/A   Unknown
6:00 AM 57.2 °F 28.4 °F 33% 30.04 in 3.7 mi NW 11.5 mph - N/A   Unknown
8:00 AM 62 °F 38 °F 29% 30.09 in 2 mi NW 19.6 mph - -   Blowing Sand
8:00 AM 60.8 °F 37.4 °F 42% 30.06 in 2.5 mi NW 19.6 mph - N/A   Sand
9:00 AM 66.2 °F 37.4 °F 35% 30.09 in 2.5 mi North 18.4 mph - N/A   Sand
10:00 AM 68.0 °F 42.8 °F 40% 30.09 in 2.5 mi NNW 19.6 mph - N/A   Sand
11:00 AM 71.6 °F 42.8 °F 35% 30.06 in 2.5 mi North 21.9 mph - N/A   Sand
12:00 PM 73.4 °F 44.6 °F 36% 30.04 in 2.5 mi North 24.2 mph - N/A   Sand
1:00 PM 73.4 °F 48.2 °F 41% 30.04 in 2.5 mi North 23.0 mph - N/A   Sand
2:00 PM 74 °F 48 °F 29% 30.00 in 2 mi North 26.5 mph - -   Blowing Sand
2:00 PM 73.4 °F 48.2 °F 41% 29.98 in 2.5 mi North 26.5 mph - N/A   Sand
3:00 PM 75.2 °F 46.4 °F 36% 29.98 in 2.5 mi North 27.6 mph - N/A   Sand
4:00 PM 73.4 °F 48.2 °F 41% 29.98 in 2.5 mi North 23.0 mph - N/A   Sand
5:00 PM 73.4 °F 48.2 °F 41% 29.98 in 2.5 mi North 21.9 mph - N/A   Sand
6:00 PM 69.8 °F 51.8 °F 53% 29.98 in 2.5 mi North 20.7 mph - N/A   Sand
7:00 PM 68.0 °F 51.8 °F 56% 30.01 in 3.7 mi North 16.1 mph - N/A   Unknown
8:00 PM 69 °F 40 °F 23% 30.03 in 4 mi NNW 13.8 mph - -   Blowing Sand
8:00 PM 68.0 °F 39.2 °F 35% 30.01 in 3.7 mi NNW 13.8 mph - N/A   Unknown
9:00 PM 66.2 °F 39.2 °F 37% 30.01 in - NW 11.5 mph - N/A   Clear
10:00 PM 66.2 °F 35.6 °F 32% 30.01 in - NW 16.1 mph - N/A   Clear
11:00 PM 66.2 °F 35.6 °F 32% 30.01 in - NW 12.7 mph - N/A   Clear